This is the latest recevied weather packets stored in our database for station/object KC4KQE. If no packets are shown the sender has not sent any weather packets the latest 10 day(s).
| Time | Temp. | Humidity | Pressure | Rain* | Wind** | Luminosity | Snow |
|---|---|---|---|---|---|---|---|
| 1777945457 | 23.33° C | 37% | 1011.2 hPa | 0 mm | - | 26 W/m² | - |
| 1777945156 | 23.89° C | 36% | 1011.3 hPa | 0 mm | - | 21 W/m² | - |
| 1777944856 | 23.89° C | 36% | 1011.5 hPa | 0 mm | - | 25 W/m² | - |
| 1777944556 | 23.89° C | 36% | 1011.3 hPa | 0 mm | - | 37 W/m² | - |
| 1777944256 | 23.89° C | 36% | 1011.3 hPa | 0 mm | - | 46 W/m² | - |
| 1777943956 | 23.89° C | 36% | 1011.3 hPa | 0 mm | - | 58 W/m² | - |
| 1777943357 | 23.89° C | 36% | 1011.3 hPa | 0 mm | - | 76 W/m² | - |
| 1777943056 | 23.89° C | 36% | 1011.3 hPa | 0 mm | - | 91 W/m² | - |
| 1777942756 | 23.89° C | 36% | 1011.3 hPa | 0 mm | - | 105 W/m² | - |
| 1777942457 | 23.89° C | 36% | 1011.2 hPa | 0 mm | - | 109 W/m² | - |
| 1777942157 | 23.89° C | 36% | 1011.2 hPa | 0 mm | - | 111 W/m² | - |
| 1777941856 | 23.89° C | 36% | 1011.4 hPa | 0 mm | - | 116 W/m² | - |
| 1777941556 | 24.44° C | 35% | 1011.5 hPa | 0 mm | - | 128 W/m² | - |
| 1777941256 | 24.44° C | 36% | 1011.5 hPa | 0 mm | - | 132 W/m² | - |
| 1777940956 | 24.44° C | 35% | 1011.4 hPa | 0 mm | - | 148 W/m² | - |
| 1777940656 | 24.44° C | 35% | 1011.5 hPa | 0 mm | - | 142 W/m² | - |
| 1777940356 | 24.44° C | 34% | 1011.6 hPa | 0 mm | - | 146 W/m² | - |
| 1777940056 | 24.44° C | 35% | 1011.7 hPa | 0 mm | - | 163 W/m² | - |
| 1777939756 | 24.44° C | 35% | 1011.7 hPa | 0 mm | - | 176 W/m² | - |
| 1777939456 | 25° C | 34% | 1011.8 hPa | 0 mm | - | 165 W/m² | - |
| 1777939156 | 25° C | 32% | 1011.7 hPa | 0 mm | - | 181 W/m² | - |
| 1777938857 | 25° C | 33% | 1011.6 hPa | 0 mm | - | 199 W/m² | - |
| 1777938556 | 25° C | 33% | 1011.6 hPa | 0 mm | - | 216 W/m² | - |
| 1777938256 | 25° C | 33% | 1011.5 hPa | 0 mm | - | 220 W/m² | - |
| 1777937956 | 25° C | 32% | 1011.5 hPa | 0 mm | - | 214 W/m² | - |
* Rain latest hour (hover to see other rain measurements)
** Current wind speed in m/s (hover to see current wind gust speed)